Location: Black Skies Observatory
(44.7549°N, 79.7179°W)
Time: 15:45:27
(UTC-04:00)

N. Korean satellite - Visible Passes

Search period start: 31 October 2020 00:00
Search period end: 09 November 2020 23:00
Orbit: 452 x 505 km, 97.2° (Epoch: 31 October)

Date Brightness Start Highest point End Pass type
(mag) Time Alt. Az. Time Alt. Az. Time Alt. Az.
31 Oct 9.7 05:59:35 10° NE 06:01:46 16° E 06:03:57 10° SE visible
01 Nov 6.4 06:05:44 10° N 06:09:09 67° WNW 06:12:33 10° SSW visible
02 Nov 7.3 05:39:38 10° NNE 05:43:00 52° E 05:46:21 10° S visible
02 Nov 9.7 17:50:23 10° SW 17:53:03 20° W 17:55:43 10° NW visible
03 Nov 9.0 05:13:54 10° NE 05:16:45 24° E 05:19:34 10° SSE visible
04 Nov 10.1 04:49:03 10° ENE 04:50:24 12° E 04:51:45 10° ESE visible
04 Nov 6.8 06:20:42 10° N 06:23:58 42° WNW 06:27:13 10° SW visible
05 Nov 6.5 05:54:25 10° NNE 05:57:51 85° E 06:01:19 10° SSW visible
05 Nov 10.0 18:06:14 10° WSW 18:08:01 13° W 18:09:48 10° WNW visible
06 Nov 8.1 05:28:26 10° NNE 05:31:39 37° E 05:34:53 10° SSE visible
06 Nov 9.1 17:38:41 10° SSW 17:41:41 27° W 17:44:40 10° NW visible
07 Nov 9.5 05:02:55 10° NE 05:05:21 18° E 05:07:47 10° SE visible
08 Nov 6.4 06:09:16 10° N 06:12:40 59° WNW 06:16:05 10° SSW visible
09 Nov 7.1 05:43:05 10° NNE 05:46:30 59° E 05:49:56 10° S visible
09 Nov 9.7 17:54:10 10° SW 17:56:35 18° W 17:59:00 10° NW visible
